Simultaneous Nadir Overpasses (SNOs) Predictions

Prediction of SNOs between FY3D and METOP-C Satellite Orbit:

Table of predicted SNOs for the next 14.0 days since TLE Epoch: 2/29/2020
Index Date (FY3D) Time (FY3D) Lat,Lon (FY3D) SZA (FY3D ) Date (METOP-C) Time (METOP-C) Lat,Lon (METOP-C) SZA (METOP-C ) Distance(km) Time Diff (sec)
1 03/02/2020 21:28:29 73.53,-150.91 80.55 03/02/2020 21:29:37 73.49,-148.61 80.38 72.96 68
2 03/02/2020 22:19:12 -73.48, 16.52 99.52 03/02/2020 22:20:21 -73.39, 18.49 99.73 63.38 69
3 03/02/2020 23:09:53 73.28,-175.71 80.24 03/02/2020 23:11:04 73.22,-174.55 80.11 37.51 71
4 03/03/2020 00:00:35 -73.18, -8.17 99.89 03/03/2020 00:01:48 -73.12, -7.44 99.99 24.18 73
5 03/03/2020 00:51:17 73.02, 159.48 79.93 03/03/2020 00:52:30 73.00, 159.63 79.89 5.16 73
6 03/03/2020 01:42:00 -72.97, -33.10 100.14 03/03/2020 01:43:13 -72.95, -33.15 100.17 2.76 73
7 03/03/2020 02:32:45 72.97, 134.23 79.85 03/03/2020 02:33:52 72.98, 134.25 79.85 1.96 67
8 03/03/2020 03:23:29 -72.97, -58.46 100.17 03/03/2020 03:24:34 -72.98, -58.42 100.17 2.16 65
9 03/03/2020 04:14:14 72.96, 108.87 79.81 03/03/2020 04:15:14 72.96, 108.87 79.80 0.28 60
10 03/03/2020 05:04:58 -72.96, -83.82 100.20 03/03/2020 05:05:56 -72.97, -83.81 100.22 0.49 58
11 03/03/2020 05:55:43 72.96, 83.51 79.78 03/03/2020 05:56:36 72.94, 83.48 79.76 1.56 53
12 03/03/2020 06:46:27 -72.96,-109.18 100.24 03/03/2020 06:47:18 -72.95,-109.19 100.26 1.38 51
13 03/03/2020 07:37:12 72.95, 58.15 79.75 03/03/2020 07:37:58 72.93, 58.10 79.71 3.31 46
14 03/03/2020 08:27:56 -72.95,-134.54 100.27 03/03/2020 08:28:40 -72.93,-134.57 100.30 3.10 44
15 03/03/2020 09:18:41 72.95, 32.79 79.72 03/03/2020 09:19:19 72.96, 32.83 79.71 1.77 38
16 03/03/2020 10:09:25 -72.95,-159.90 100.30 03/03/2020 10:10:01 -72.96,-159.84 100.30 2.20 36
17 03/03/2020 11:00:10 72.94, 7.42 79.68 03/03/2020 11:00:41 72.94, 7.45 79.67 1.04 31
18 03/03/2020 11:50:54 -72.94, 174.74 100.33 03/03/2020 11:51:23 -72.94, 174.78 100.35 1.43 29
19 03/03/2020 12:41:39 72.94, -17.94 79.65 03/03/2020 12:42:03 72.92, -17.93 79.63 2.27 24
20 03/03/2020 13:32:23 -72.94, 149.38 100.37 03/03/2020 13:32:45 -72.92, 149.40 100.39 2.31 22
21 03/03/2020 14:23:08 72.93, -43.30 79.62 03/03/2020 14:23:24 72.95, -43.20 79.63 3.50 16
22 03/03/2020 15:13:52 -72.93, 124.02 100.40 03/03/2020 15:14:07 -72.90, 124.02 100.44 3.84 15
23 03/03/2020 16:04:37 72.93, -68.66 79.59 03/03/2020 16:04:46 72.93, -68.59 79.58 2.40 9
24 03/03/2020 16:55:21 -72.93, 98.66 100.43 03/03/2020 16:55:28 -72.93, 98.74 100.44 2.85 7
25 03/03/2020 17:46:06 72.92, -94.02 79.55 03/03/2020 17:46:08 72.91, -93.97 79.54 2.33 2
26 03/03/2020 18:36:50 -72.92, 73.30 100.46 03/03/2020 18:36:50 -72.91, 73.36 100.48 2.64 0
27 03/03/2020 19:27:35 72.92,-119.38 79.52 03/03/2020 19:27:30 72.89,-119.35 79.49 3.35 5
28 03/03/2020 20:18:18 -72.87, 48.04 100.55 03/03/2020 20:18:12 -72.89, 47.98 100.52 3.18 6
29 03/03/2020 21:09:02 72.86,-144.63 79.43 03/03/2020 21:08:51 72.87,-144.73 79.45 3.14 11
30 03/03/2020 21:59:46 -72.87, 22.68 100.58 03/03/2020 21:59:33 -72.87, 22.60 100.57 2.74 13
31 03/03/2020 22:50:32 72.91,-170.10 79.46 03/03/2020 22:50:12 72.90,-170.00 79.45 3.44 20
32 03/03/2020 23:41:15 -72.86, -2.68 100.62 03/03/2020 23:40:55 -72.85, -2.78 100.61 3.31 20
33 03/04/2020 00:32:00 72.86, 164.64 79.37 03/04/2020 00:31:34 72.88, 164.62 79.41 3.30 26
34 03/04/2020 01:22:44 -72.86, -28.04 100.65 03/04/2020 01:22:16 -72.89, -28.05 100.61 3.29 28
35 03/04/2020 02:13:29 72.85, 139.28 79.34 03/04/2020 02:12:56 72.86, 139.24 79.36 2.12 33
36 03/04/2020 03:04:13 -72.85, -53.40 100.68 03/04/2020 03:03:38 -72.87, -53.43 100.66 1.94 35
37 03/04/2020 03:54:58 72.85, 113.92 79.30 03/04/2020 03:54:18 72.85, 113.86 79.32 2.06 40
38 03/04/2020 04:45:42 -72.85, -78.76 100.71 03/04/2020 04:45:00 -72.85, -78.81 100.70 1.67 42
39 03/04/2020 05:36:27 72.84, 88.56 79.27 03/04/2020 05:35:40 72.83, 88.48 79.27 3.18 47
40 03/04/2020 06:27:11 -72.84,-104.12 100.75 03/04/2020 06:26:22 -72.83,-104.20 100.75 2.81 49
41 03/04/2020 07:17:56 72.84, 63.20 79.24 03/04/2020 07:17:01 72.86, 63.20 79.27 2.31 55
42 03/04/2020 08:08:40 -72.84,-129.49 100.78 03/04/2020 08:07:43 -72.86,-129.47 100.75 2.46 57
43 03/04/2020 08:59:25 72.83, 37.84 79.21 03/04/2020 08:58:23 72.84, 37.82 79.23 0.81 62
44 03/04/2020 09:50:09 -72.83,-154.85 100.81 03/04/2020 09:49:05 -72.84,-154.85 100.79 0.78 64
45 03/04/2020 10:40:54 72.83, 12.48 79.17 03/04/2020 10:39:45 72.82, 12.44 79.18 1.46 69
46 03/04/2020 11:31:38 -72.83, 179.79 100.84 03/04/2020 11:30:27 -72.82, 179.77 100.83 1.13 71
47 03/04/2020 12:22:22 72.77, -12.78 79.09 03/04/2020 12:21:08 72.75, -13.04 79.09 9.08 74
48 03/04/2020 13:13:05 -72.72, 154.64 100.99 03/04/2020 13:11:51 -72.70, 154.18 100.97 15.49 74
49 03/04/2020 14:03:46 72.51, -37.62 78.78 03/04/2020 14:02:35 72.47, -38.94 78.83 44.44 71
50 03/04/2020 14:54:28 -72.41, 129.90 101.35 03/04/2020 14:53:18 -72.43, 128.29 101.23 54.19 70
51 03/04/2020 15:45:09 72.20, -62.37 78.41 03/04/2020 15:44:02 72.20, -64.82 78.56 83.28 67
52 03/04/2020 16:35:52 -72.15, 105.04 101.66 03/04/2020 16:34:45 -72.15, 102.41 101.50 89.60 67




NCC Satellite Simultaneous Nadir Overpasses (SNOs) Prediction Service
